Location: Newark
(36.7344°N, 137.0547°E)
Time: 13:48:53
(UTC+00:00)

Envisat - Pass Details

Date: 21 October 2019
Orbit: 764 x 766 km, 98.1° (Epoch: 21 November)

Event Time Altitude Azimuth Distance (km) Brightness Sun altitude
Rises 08:28:53 0° 150° (SSE) 3,219 6.0 -4.8°
Reaches altitude 10° 08:31:15 10° 144° (SE) 2,296 5.2 -5.3°
Maximum altitude 08:36:04 46° 72° (ENE) 1,025 3.3 -6.3°
Drops below altitude 10° 08:40:55 10° 1° (N) 2,310 5.4 -7.2°
Sets 08:43:18 0° 355° (N) 3,240 6.2 -7.7°
